AVA104 SLLP-SPZO

Flight info

Callsign AVA104
Flight time 0h 44m
Altitude 36000
Route ELAKO UM657 JUL UV11 ILMOX
Aircraft A319/M-SDE3FGHIRWY/LB1

Departure

Time 2026-04-24 19:31
Airport El Alto International Airport (SLLP)

Arrival

Time 2026-04-24 20:15
Airport Alejandro Velasco Astete International Airport (SPZO)
Time Latitude Longitude Altitude Speed Heading
2026-04-24 18:55 -16.50969 -68.17688 13336 ft 0 kts 27°
2026-04-24 19:22 -16.50984 -68.17696 13335 ft 4 kts 35°
2026-04-24 19:22 -16.51003 -68.17715 13334 ft 4 kts 64°
2026-04-24 19:23 -16.51006 -68.17737 13335 ft 2 kts 118°
2026-04-24 19:23 -16.51005 -68.17738 13335 ft 0 kts 118°
2026-04-24 19:26 -16.51005 -68.17737 13336 ft 1 kts 118°
2026-04-24 19:26 -16.51012 -68.17726 13335 ft 4 kts 118°
2026-04-24 19:26 -16.51034 -68.17682 13336 ft 8 kts 118°
2026-04-24 19:27 -16.51067 -68.17625 13335 ft 11 kts 123°
2026-04-24 19:27 -16.51123 -68.17557 13332 ft 14 kts 130°
2026-04-24 19:27 -16.51190 -68.17475 13330 ft 15 kts 130°
2026-04-24 19:27 -16.51246 -68.17406 13328 ft 10 kts 130°
2026-04-24 19:28 -16.51282 -68.17377 13326 ft 0 kts 155°
2026-04-24 19:28 -16.51285 -68.17375 13328 ft 2 kts 155°
2026-04-24 19:29 -16.51381 -68.17364 13326 ft 8 kts 182°
2026-04-24 19:29 -16.51391 -68.17400 13326 ft 0 kts 271°
2026-04-24 19:29 -16.51391 -68.17401 13326 ft 0 kts 271°
2026-04-24 19:30 -16.51389 -68.17473 13324 ft 37 kts 272°
2026-04-24 19:30 -16.51373 -68.17974 13314 ft 99 kts 272°
2026-04-24 19:30 -16.51345 -68.18887 13290 ft 150 kts 272°
2026-04-24 19:30 -16.51306 -68.20111 13221 ft 193 kts 272°
2026-04-24 19:31 -16.51259 -68.21550 13764 ft 195 kts 272°
2026-04-24 19:31 -16.51135 -68.22950 14513 ft 194 kts 284°
2026-04-24 19:31 -16.50576 -68.24258 14790 ft 207 kts 306°
2026-04-24 19:31 -16.49646 -68.25484 14996 ft 223 kts 308°
2026-04-24 19:32 -16.48674 -68.26810 15206 ft 241 kts 307°
2026-04-24 19:32 -16.47640 -68.28275 15400 ft 261 kts 307°
2026-04-24 19:32 -16.46497 -68.29873 15577 ft 286 kts 307°
2026-04-24 19:32 -16.45251 -68.31601 15779 ft 310 kts 307°
2026-04-24 19:33 -16.43931 -68.33423 16120 ft 325 kts 307°
2026-04-24 19:33 -16.42547 -68.35332 16751 ft 331 kts 307°
2026-04-24 19:33 -16.41153 -68.37255 17446 ft 334 kts 307°
2026-04-24 19:33 -16.39756 -68.39181 18141 ft 338 kts 307°
2026-04-24 19:34 -16.38325 -68.41154 18806 ft 341 kts 306°
2026-04-24 19:34 -16.36882 -68.43147 19399 ft 345 kts 307°
2026-04-24 19:34 -16.35448 -68.45131 19849 ft 348 kts 307°
2026-04-24 19:34 -16.33976 -68.47170 20308 ft 357 kts 307°
2026-04-24 19:35 -16.32438 -68.49303 20428 ft 378 kts 307°
2026-04-24 19:35 -16.30820 -68.51541 20681 ft 393 kts 307°
2026-04-24 19:35 -16.29174 -68.53817 21165 ft 400 kts 307°
2026-04-24 19:35 -16.27490 -68.56151 21704 ft 405 kts 308°
2026-04-24 19:36 -16.25791 -68.58506 22316 ft 408 kts 308°
2026-04-24 19:36 -16.24072 -68.60882 22869 ft 412 kts 308°
2026-04-24 19:36 -16.22349 -68.63256 23434 ft 416 kts 308°
2026-04-24 19:36 -16.20591 -68.65675 23936 ft 420 kts 308°
2026-04-24 19:37 -16.18819 -68.68113 24431 ft 423 kts 308°
2026-04-24 19:37 -16.17033 -68.70569 24877 ft 426 kts 308°
2026-04-24 19:37 -16.15235 -68.73042 25298 ft 429 kts 308°
2026-04-24 19:37 -16.13448 -68.75501 25740 ft 432 kts 308°
2026-04-24 19:38 -16.11620 -68.78015 26171 ft 436 kts 308°
2026-04-24 19:38 -16.09784 -68.80539 26599 ft 439 kts 308°
2026-04-24 19:38 -16.07927 -68.83093 27051 ft 442 kts 308°
2026-04-24 19:38 -16.06087 -68.85624 27482 ft 445 kts 308°
2026-04-24 19:39 -16.04216 -68.88196 27908 ft 448 kts 308°
2026-04-24 19:39 -16.02327 -68.90790 28346 ft 450 kts 308°
2026-04-24 19:39 -16.00426 -68.93399 28781 ft 453 kts 308°
2026-04-24 19:39 -15.98530 -68.96050 29195 ft 457 kts 304°
2026-04-24 19:40 -15.96968 -68.98941 29607 ft 462 kts 295°
2026-04-24 19:40 -15.95895 -69.02072 29938 ft 467 kts 284°
2026-04-24 19:40 -15.95327 -69.05420 30296 ft 470 kts 276°
2026-04-24 19:40 -15.94980 -69.08806 30658 ft 472 kts 276°
2026-04-24 19:41 -15.94628 -69.12175 30989 ft 475 kts 276°
2026-04-24 19:41 -15.94260 -69.15610 31304 ft 478 kts 276°
2026-04-24 19:41 -15.93888 -69.19064 31661 ft 480 kts 277°
2026-04-24 19:41 -15.93516 -69.22521 32084 ft 479 kts 277°
2026-04-24 19:42 -15.93152 -69.25914 32638 ft 476 kts 277°
2026-04-24 19:42 -15.92561 -69.29302 33153 ft 473 kts 285°
2026-04-24 19:42 -15.91490 -69.32496 33661 ft 471 kts 295°
2026-04-24 19:42 -15.89974 -69.35518 34166 ft 468 kts 300°
2026-04-24 19:43 -15.88377 -69.38465 34638 ft 467 kts 300°
2026-04-24 19:43 -15.86805 -69.41363 35093 ft 465 kts 300°
2026-04-24 19:43 -15.85217 -69.44294 35558 ft 463 kts 300°
2026-04-24 19:43 -15.83634 -69.47220 35935 ft 463 kts 300°
2026-04-24 19:44 -15.82057 -69.50132 36035 ft 460 kts 301°
2026-04-24 19:44 -15.78963 -69.55847 36054 ft 453 kts 300°
2026-04-24 19:45 -15.75879 -69.61563 36051 ft 452 kts 300°
2026-04-24 19:45 -15.72813 -69.67239 36049 ft 452 kts 300°
2026-04-24 19:46 -15.69739 -69.72905 36047 ft 452 kts 301°
2026-04-24 19:46 -15.66648 -69.78601 36048 ft 452 kts 301°
2026-04-24 19:47 -15.63575 -69.84263 36033 ft 452 kts 300°
2026-04-24 19:47 -15.60479 -69.89966 36033 ft 452 kts 301°
2026-04-24 19:48 -15.57382 -69.95665 36024 ft 452 kts 300°
2026-04-24 19:48 -15.52757 -70.04178 36015 ft 452 kts 300°
2026-04-24 19:49 -15.46170 -70.15222 36008 ft 449 kts 315°
2026-04-24 19:50 -15.36507 -70.23290 36012 ft 446 kts 323°
2026-04-24 19:51 -15.29145 -70.29161 36014 ft 446 kts 323°
2026-04-24 19:52 -15.21753 -70.35048 36035 ft 446 kts 323°
2026-04-24 19:52 -15.16843 -70.38950 36022 ft 446 kts 324°
2026-04-24 19:53 -15.11952 -70.42837 36022 ft 445 kts 324°
2026-04-24 19:54 -15.04585 -70.48689 36017 ft 445 kts 324°
2026-04-24 19:54 -14.99649 -70.52609 36016 ft 446 kts 324°
2026-04-24 19:55 -14.96386 -70.55199 36017 ft 446 kts 323°
2026-04-24 19:55 -14.89809 -70.60413 36019 ft 446 kts 324°
2026-04-24 19:56 -14.84883 -70.64316 36027 ft 445 kts 324°
2026-04-24 19:56 -14.79981 -70.68198 36030 ft 445 kts 324°
2026-04-24 19:57 -14.75063 -70.72101 36031 ft 445 kts 324°
2026-04-24 19:57 -14.70162 -70.75971 36032 ft 444 kts 325°
2026-04-24 19:58 -14.65241 -70.79854 36041 ft 445 kts 324°
2026-04-24 19:58 -14.60322 -70.83742 36040 ft 444 kts 324°
2026-04-24 19:59 -14.55434 -70.87605 36035 ft 445 kts 324°
2026-04-24 19:59 -14.50508 -70.91490 36044 ft 445 kts 324°
2026-04-24 20:00 -14.45613 -70.95346 36045 ft 445 kts 324°
2026-04-24 20:00 -14.41518 -70.98572 36068 ft 445 kts 324°
2026-04-24 20:01 -14.36589 -71.02467 35892 ft 450 kts 324°
2026-04-24 20:01 -14.33260 -71.05089 34765 ft 460 kts 323°
2026-04-24 20:01 -14.31532 -71.06448 34149 ft 464 kts 324°
2026-04-24 20:01 -14.28942 -71.08482 33105 ft 470 kts 323°
2026-04-24 20:02 -14.26364 -71.10511 32067 ft 473 kts 324°
2026-04-24 20:02 -14.23771 -71.12557 31525 ft 462 kts 324°
2026-04-24 20:02 -14.21220 -71.14569 30858 ft 461 kts 323°
2026-04-24 20:02 -14.18673 -71.16573 30171 ft 460 kts 323°
2026-04-24 20:03 -14.16129 -71.18570 29466 ft 458 kts 324°
2026-04-24 20:03 -14.13631 -71.20532 28839 ft 454 kts 323°
2026-04-24 20:03 -14.11119 -71.22505 28195 ft 451 kts 324°
2026-04-24 20:03 -14.08626 -71.24462 27565 ft 447 kts 324°
2026-04-24 20:04 -14.06157 -71.26398 26930 ft 444 kts 323°
2026-04-24 20:04 -14.03738 -71.28297 26354 ft 441 kts 324°
2026-04-24 20:04 -14.01305 -71.30208 25726 ft 438 kts 324°
2026-04-24 20:04 -13.98893 -71.32103 25142 ft 435 kts 324°
2026-04-24 20:05 -13.96489 -71.33989 24564 ft 432 kts 324°
2026-04-24 20:05 -13.94110 -71.35857 24006 ft 424 kts 324°
2026-04-24 20:05 -13.91818 -71.37654 23608 ft 413 kts 324°
2026-04-24 20:05 -13.89575 -71.39411 23507 ft 394 kts 325°
2026-04-24 20:06 -13.87438 -71.41091 23281 ft 379 kts 324°
2026-04-24 20:06 -13.85387 -71.42702 22805 ft 371 kts 324°
2026-04-24 20:06 -13.83326 -71.44316 22041 ft 372 kts 323°
2026-04-24 20:06 -13.81280 -71.45917 21507 ft 366 kts 323°
2026-04-24 20:07 -13.79943 -71.46964 21091 ft 364 kts 323°
2026-04-24 20:07 -13.77313 -71.49030 20702 ft 347 kts 323°
2026-04-24 20:07 -13.75438 -71.50503 20558 ft 331 kts 323°
2026-04-24 20:07 -13.73681 -71.52008 20217 ft 323 kts 315°
2026-04-24 20:08 -13.72229 -71.53729 19817 ft 320 kts 305°
2026-04-24 20:08 -13.71091 -71.55683 19378 ft 316 kts 295°
2026-04-24 20:08 -13.70287 -71.57785 18836 ft 314 kts 288°
2026-04-24 20:08 -13.69585 -71.59884 18319 ft 314 kts 288°
2026-04-24 20:09 -13.68863 -71.61999 17798 ft 311 kts 289°
2026-04-24 20:09 -13.68012 -71.64034 17304 ft 308 kts 297°
2026-04-24 20:09 -13.66946 -71.65946 16683 ft 309 kts 303°
2026-04-24 20:09 -13.65720 -71.67702 16239 ft 300 kts 309°
2026-04-24 20:10 -13.64380 -71.69262 15971 ft 278 kts 314°
2026-04-24 20:10 -13.63082 -71.70657 15626 ft 263 kts 314°
2026-04-24 20:10 -13.61841 -71.71995 15290 ft 251 kts 314°
2026-04-24 20:10 -13.60739 -71.73296 14945 ft 237 kts 308°
2026-04-24 20:11 -13.59856 -71.74667 14644 ft 223 kts 301°
2026-04-24 20:11 -13.59181 -71.76064 14361 ft 212 kts 295°
2026-04-24 20:11 -13.58648 -71.77422 14102 ft 201 kts 293°
2026-04-24 20:11 -13.58143 -71.78704 13919 ft 187 kts 294°
2026-04-24 20:12 -13.57664 -71.79912 13725 ft 176 kts 293°
2026-04-24 20:12 -13.57209 -71.81058 13403 ft 171 kts 294°
2026-04-24 20:12 -13.56772 -71.82185 12886 ft 168 kts 291°
2026-04-24 20:12 -13.56399 -71.83279 12568 ft 160 kts 291°
2026-04-24 20:13 -13.56046 -71.84349 12344 ft 156 kts 291°
2026-04-24 20:13 -13.55671 -71.85393 12166 ft 154 kts 297°
2026-04-24 20:13 -13.55192 -71.86371 11981 ft 152 kts 303°
2026-04-24 20:13 -13.54658 -71.87292 11762 ft 153 kts 301°
2026-04-24 20:14 -13.54240 -71.88316 11517 ft 159 kts 287°
2026-04-24 20:14 -13.54025 -71.89433 11238 ft 162 kts 277°
2026-04-24 20:14 -13.53904 -71.90605 11050 ft 165 kts 276°
2026-04-24 20:14 -13.53787 -71.91794 10822 ft 168 kts 277°
2026-04-24 20:15 -13.53668 -71.92960 10748 ft 146 kts 275°
2026-04-24 20:15 -13.53588 -71.93737 10800 ft 86 kts 276°
2026-04-24 20:15 -13.53543 -71.94184 10814 ft 35 kts 276°
2026-04-24 20:15 -13.53539 -71.94331 10815 ft 13 kts 228°
2026-04-24 20:16 -13.53622 -71.94347 10815 ft 10 kts 186°
2026-04-24 20:16 -13.53660 -71.94375 10816 ft 7 kts 264°
2026-04-24 20:16 -13.53652 -71.94430 10817 ft 8 kts 278°
2026-04-24 20:16 -13.53664 -71.94453 10816 ft 3 kts 200°
2026-04-24 20:17 -13.53693 -71.94457 10817 ft 5 kts 188°
2026-04-24 20:17 -13.53766 -71.94442 10817 ft 6 kts 110°
2026-04-24 20:17 -13.53777 -71.94418 10816 ft 2 kts 116°
2026-04-24 20:18 -13.53779 -71.94414 10815 ft 0 kts 116°